When you browse on this site, cookies collect data to enhance your experience and personalize the content and advertising you see.
Visit our Privacy Policy to learn more. By continuing to use the site, you agree to this use of cookies and data.
  • In Schweiz
  • Länderverzeichnis
  • Für 7 Tage
  • Wassertemperatur
  • Satellitenkarten
  • Wetterkarte
  • Widgets
  • user-avatar
    Anmelden

    Stündliche Wetter Serowe

    Heute, 17 November, Samstag

    Zeit Temperatur Niederschläge Wind Luftdruck Luftfeuchtigkeit
    00:00 +26°C° 0 mm 4 m/S 668 mmHg 31%
    01:00 +25°C° 0 mm 4 m/S 668 mmHg 33%
    02:00 +23°C° 0 mm 4 m/S 668 mmHg 36%
    03:00 +22°C° 0 mm 4 m/S 668 mmHg 38%
    04:00 +22°C° 0 mm 3 m/S 668 mmHg 40%
    05:00 +21°C° 0 mm 3 m/S 668 mmHg 42%
    06:00 +23°C° 0 mm 4 m/S 668 mmHg 38%
    07:00 +26°C° 0 mm 4 m/S 669 mmHg 34%
    08:00 +27°C° 0 mm 5 m/S 669 mmHg 30%
    09:00 +29°C° 0 mm 5 m/S 669 mmHg 25%
    10:00 +33°C° 0 mm 4 m/S 670 mmHg 20%
    11:00 +35°C° 0 mm 4 m/S 670 mmHg 15%
    12:00 +36°C° 0 mm 4 m/S 669 mmHg 13%
    13:00 +37°C° 0 mm 4 m/S 669 mmHg 11%
    14:00 +38°C° 0 mm 4 m/S 668 mmHg 9%
    15:00 +38°C° 0 mm 4 m/S 668 mmHg 9%
    16:00 +38°C° 0 mm 4 m/S 668 mmHg 10%
    17:00 +39°C° 0 mm 5 m/S 667 mmHg 10%
    18:00 +36°C° 0 mm 4 m/S 667 mmHg 12%
    19:00 +34°C° 0 mm 3 m/S 667 mmHg 14%
    20:00 +31°C° 0 mm 3 m/S 667 mmHg 16%
    21:00 +30°C° 0 mm 3 m/S 667 mmHg 18%
    22:00 +29°C° 0 mm 2 m/S 668 mmHg 19%
    23:00 +28°C° 0 mm 2 m/S 668 mmHg 20%

    Morgen, 18 November, Sonntag

    Zeit Temperatur Niederschläge Wind Luftdruck Luftfeuchtigkeit
    00:00 +27°C° 0 mm 2 m/S 668 mmHg 21%
    01:00 +27°C° 0 mm 3 m/S 667 mmHg 21%
    02:00 +26°C° 0 mm 3 m/S 667 mmHg 22%
    03:00 +26°C° 0 mm 3 m/S 667 mmHg 24%
    04:00 +26°C° 0 mm 4 m/S 667 mmHg 26%
    05:00 +25°C° 0 mm 5 m/S 667 mmHg 28%
    06:00 +27°C° 0 mm 6 m/S 667 mmHg 29%
    07:00 +28°C° 0 mm 7 m/S 668 mmHg 30%
    08:00 +29°C° 0 mm 8 m/S 668 mmHg 30%
    09:00 +32°C° 0 mm 7 m/S 669 mmHg 26%
    10:00 +34°C° 0 mm 7 m/S 669 mmHg 23%
    11:00 +38°C° 0 mm 6 m/S 669 mmHg 19%
    12:00 +38°C° 0 mm 6 m/S 669 mmHg 17%
    13:00 +39°C° 0 mm 5 m/S 668 mmHg 15%
    14:00 +40°C° 0 mm 5 m/S 667 mmHg 14%
    15:00 +40°C° 0 mm 5 m/S 667 mmHg 14%
    16:00 +39°C° 0 mm 5 m/S 667 mmHg 15%
    17:00 +39°C° 0 mm 5 m/S 666 mmHg 15%
    18:00 +36°C° 0 mm 5 m/S 666 mmHg 19%
    19:00 +34°C° 0 mm 6 m/S 667 mmHg 23%
    20:00 +33°C° 0 mm 6 m/S 667 mmHg 26%
    21:00 +32°C° 0 mm 6 m/S 667 mmHg 31%
    22:00 +29°C° 0 mm 6 m/S 667 mmHg 35%
    23:00 +28°C° 0 mm 7 m/S 667 mmHg 39%

    übermorgen, 19 November, Montag

    Zeit Temperatur Niederschläge Wind Luftdruck Luftfeuchtigkeit
    00:00 +28°C° 0 mm 7 m/S 667 mmHg 42%
    01:00 +27°C° 0 mm 7 m/S 667 mmHg 45%
    02:00 +26°C° 0 mm 7 m/S 667 mmHg 48%
    03:00 +24°C° 0 mm 8 m/S 667 mmHg 51%
    04:00 +24°C° 0 mm 9 m/S 667 mmHg 55%
    05:00 +23°C° 0 mm 9 m/S 668 mmHg 59%
    06:00 +23°C° 0 mm 9 m/S 668 mmHg 59%
    07:00 +23°C° 0 mm 9 m/S 668 mmHg 60%
    08:00 +24°C° 0 mm 10 m/S 669 mmHg 60%
    09:00 +27°C° 0 mm 9 m/S 669 mmHg 53%
    10:00 +29°C° 0 mm 8 m/S 669 mmHg 45%
    11:00 +32°C° 0 mm 8 m/S 669 mmHg 38%
    12:00 +33°C° 0 mm 7 m/S 669 mmHg 34%
    13:00 +35°C° 0 mm 6 m/S 668 mmHg 30%
    14:00 +36°C° 0 mm 6 m/S 667 mmHg 25%
    15:00 +36°C° 0 mm 5 m/S 667 mmHg 25%
    16:00 +36°C° 0 mm 5 m/S 666 mmHg 24%
    17:00 +36°C° 0 mm 5 m/S 666 mmHg 24%
    18:00 +34°C° 0 mm 5 m/S 666 mmHg 27%
    19:00 +33°C° 0 mm 5 m/S 666 mmHg 30%
    20:00 +30°C° 0 mm 5 m/S 666 mmHg 33%
    21:00 +29°C° 0 mm 5 m/S 666 mmHg 35%
    22:00 +29°C° 0 mm 6 m/S 666 mmHg 37%
    23:00 +28°C° 0 mm 6 m/S 667 mmHg 39%

    20 November, Dienstag

    Zeit Temperatur Niederschläge Wind Luftdruck Luftfeuchtigkeit
    00:00 +27°C° 0 mm 6 m/S 666 mmHg 42%
    01:00 +27°C° 0 mm 6 m/S 666 mmHg 44%
    02:00 +26°C° 0 mm 6 m/S 665 mmHg 47%
    03:00 +24°C° 0 mm 6 m/S 665 mmHg 49%
    04:00 +24°C° 0 mm 6 m/S 665 mmHg 52%
    05:00 +23°C° 0 mm 6 m/S 665 mmHg 54%
    06:00 +24°C° 0 mm 6 m/S 666 mmHg 51%
    07:00 +26°C° 0 mm 7 m/S 666 mmHg 48%
    08:00 +27°C° 0 mm 7 m/S 667 mmHg 45%
    09:00 +30°C° 0 mm 6 m/S 667 mmHg 39%
    10:00 +33°C° 0 mm 6 m/S 667 mmHg 33%
    11:00 +36°C° 0 mm 5 m/S 668 mmHg 27%
    12:00 +37°C° 0 mm 5 m/S 667 mmHg 24%
    13:00 +38°C° 0 mm 4 m/S 666 mmHg 21%
    14:00 +40°C° 0 mm 4 m/S 665 mmHg 18%
    15:00 +38°C° 0.2 mm 3 m/S 665 mmHg 20%
    16:00 +37°C° 0.2 mm 3 m/S 664 mmHg 22%
    17:00 +35°C° 0.2 mm 3 m/S 664 mmHg 24%
    18:00 +34°C° 0.1 mm 2 m/S 664 mmHg 28%
    19:00 +31°C° 0.1 mm 2 m/S 664 mmHg 31%
    20:00 +30°C° 0.1 mm 2 m/S 664 mmHg 35%
    21:00 +29°C° 0.4 mm 2 m/S 664 mmHg 38%
    22:00 +28°C° 0.4 mm 3 m/S 664 mmHg 42%
    23:00 +28°C° 0.4 mm 3 m/S 665 mmHg 45%

    21 November, Mittwoch

    Zeit Temperatur Niederschläge Wind Luftdruck Luftfeuchtigkeit
    00:00 +27°C° 0.1 mm 3 m/S 664 mmHg 47%
    01:00 +26°C° 0.1 mm 3 m/S 664 mmHg 49%
    02:00 +26°C° 0.1 mm 3 m/S 664 mmHg 51%
    03:00 +25°C° 0 mm 3 m/S 663 mmHg 52%
    04:00 +25°C° 0 mm 3 m/S 663 mmHg 52%
    05:00 +25°C° 0 mm 2 m/S 663 mmHg 53%
    06:00 +26°C° 0 mm 3 m/S 664 mmHg 47%
    07:00 +28°C° 0 mm 3 m/S 665 mmHg 41%
    08:00 +29°C° 0 mm 3 m/S 665 mmHg 35%
    09:00 +32°C° 0 mm 2 m/S 666 mmHg 30%
    10:00 +35°C° 0 mm 1 m/S 666 mmHg 25%
    11:00 +39°C° 0 mm 1 m/S 666 mmHg 19%
    12:00 +39°C° 0 mm 1 m/S 666 mmHg 19%
    13:00 +39°C° 0 mm 2 m/S 665 mmHg 18%
    14:00 +39°C° 0 mm 3 m/S 664 mmHg 18%
    15:00 +36°C° 1.6 mm 5 m/S 664 mmHg 25%
    16:00 +33°C° 1.6 mm 7 m/S 663 mmHg 33%
    17:00 +31°C° 1.6 mm 9 m/S 662 mmHg 41%
    18:00 +29°C° 1.7 mm 7 m/S 663 mmHg 40%
    19:00 +28°C° 1.7 mm 6 m/S 664 mmHg 39%
    20:00 +28°C° 1.7 mm 5 m/S 664 mmHg 38%
    21:00 +27°C° 0 mm 4 m/S 664 mmHg 39%
    22:00 +27°C° 0 mm 3 m/S 664 mmHg 40%
    23:00 +27°C° 0 mm 2 m/S 664 mmHg 41%

    22 November, Donnerstag

    Zeit Temperatur Niederschläge Wind Luftdruck Luftfeuchtigkeit
    00:00 +26°C° 0 mm 2 m/S 664 mmHg 44%
    01:00 +25°C° 0 mm 3 m/S 663 mmHg 48%
    02:00 +25°C° 0 mm 3 m/S 663 mmHg 51%
    03:00 +24°C° 0 mm 3 m/S 663 mmHg 54%
    04:00 +24°C° 0 mm 2 m/S 663 mmHg 57%
    05:00 +23°C° 0 mm 2 m/S 664 mmHg 60%
    06:00 +24°C° 0 mm 3 m/S 664 mmHg 59%
    07:00 +25°C° 0 mm 5 m/S 665 mmHg 59%
    08:00 +26°C° 0 mm 6 m/S 666 mmHg 59%
    09:00 +27°C° 0 mm 6 m/S 666 mmHg 54%
    10:00 +29°C° 0 mm 6 m/S 666 mmHg 49%
    11:00 +32°C° 0 mm 6 m/S 666 mmHg 44%
    12:00 +33°C° 0 mm 5 m/S 666 mmHg 39%
    13:00 +34°C° 0 mm 4 m/S 665 mmHg 34%
    14:00 +36°C° 0 mm 4 m/S 665 mmHg 29%
    15:00 +35°C° 0 mm 4 m/S 664 mmHg 30%
    16:00 +35°C° 0 mm 4 m/S 664 mmHg 30%
    17:00 +35°C° 0 mm 4 m/S 664 mmHg 30%
    18:00 +33°C° 0 mm 5 m/S 664 mmHg 36%
    19:00 +30°C° 0 mm 5 m/S 664 mmHg 41%
    20:00 +29°C° 0 mm 6 m/S 664 mmHg 47%
    21:00 +27°C° 0 mm 7 m/S 664 mmHg 51%
    22:00 +26°C° 0 mm 8 m/S 665 mmHg 55%
    23:00 +24°C° 0 mm 8 m/S 665 mmHg 59%
    Mehr zeigen